Location: Creston
(40.9870°N, 81.8938°W)
Time: 17:23:34
(UTC+00:00)

Cosmos 1400 Rocket - Pass Details

Date: 29 October 2020
Orbit: 521 x 568 km, 81.2° (Epoch: 24 November)

Event Time Altitude Azimuth Distance (km) Brightness Sun altitude
Rises 23:26:57 0° 197° (SSW) 2,750 6.7 -12.0°
Reaches altitude 10° 23:29:10 10° 201° (SSW) 1,855 5.9 -12.4°
Maximum altitude 23:33:12 60° 281° (W) 648 3.5 -13.1°
Drops below altitude 10° 23:37:15 10° 2° (N) 1,850 5.4 -13.9°
Sets 23:39:27 0° 6° (N) 2,742 6.3 -14.3°
